Location: Be Boakai
(6.6045°N, 10.6740°W)
Time: 07:47:41
(UTC+00:00)

Daily predictions for brighter satellites

Satellite Brightness Start Highest point End
(mag) Time Altitude Azimuth Time Altitude Azimuth Time Altitude Azimuth
ATLAS 3B R/B 2.9 19:00:47 10° NNW 19:07:55 59° ENE 19:15:13 10° SE
Palapa 6 Rocket 4.1 19:02:48 10° NW 19:08:10 38° NNE 19:12:36 10° E
Cosmos 1939 Rocket 3.0 19:05:39 10° SSE 19:09:48 89° ENE 19:13:55 10° N
Cosmos 1455 3.6 19:09:10 10° NE 19:12:00 20° E 19:14:51 10° SE
Cosmos 783 Rocket 4.5 19:08:17 10° N 19:13:31 80° ENE 19:18:49 10° SSE
Ariane H10+ 3.6 19:11:42 10° W 19:16:00 74° S 19:33:11 10° E
Cosmos 2058 Rocket 3.2 19:12:10 10° N 19:16:34 55° E 19:20:59 10° SSE
Cosmos 1626 Rocket 3.8 19:14:04 10° S 19:18:22 73° W 19:22:41 10° N
ARIANE 5 R/B 4.1 19:18:17 10° S 19:19:21 12° SSE 19:20:46 10° SE
CZ-4 R/B 2.0 19:18:27 10° SE 19:22:18 36° ENE 19:26:05 10° NNE
BLOCK DM-SL R/B 4.5 19:18:35 10° WSW 19:22:33 52° SSE 19:43:39 10° E
Cosmos 1328 3.8 19:19:11 10° S 19:23:10 66° E 19:27:09 10° NNE
IRS-1C Rocket 4.1 19:20:06 10° SSE 19:25:15 58° ENE 19:30:23 10° N
Cosmos 2026 Rocket 3.9 19:22:02 10° S 19:28:01 66° E 19:34:02 10° NNE
Feng Yun 1-1 Rocket 4.2 19:24:07 10° SSE 19:29:30 87° WSW 19:34:54 10° NNW
Delta 168 3.7 19:32:29 10° NNW 19:35:01 22° NNE 19:36:08 19° NE
Cosmos 1943 3.7 19:31:02 10° NNW 19:36:36 65° WSW 19:42:08 10° S
CZ-2C R/B 2.7 19:33:13 10° NNE 19:38:49 79° ESE 19:44:25 10° S
Okean-O 2.7 19:35:31 10° SSE 19:39:50 54° ENE 19:44:08 10° N
Cosmos 1758 Rocket 3.5 19:35:55 10° S 19:40:14 66° E 19:44:35 10° NNE
Meteor 1-11 4.2 19:38:29 10° S 19:44:15 73° E 19:49:57 10° N
CZ-2C R/B 3.3 19:39:28 10° S 19:44:22 71° WSW 19:49:32 10° NNW
H-2A R/B 1.9 19:41:47 10° SSE 19:46:35 57° ENE 19:51:24 10° N
HJ-1C 4.0 19:43:48 10° SE 19:46:47 32° ENE 19:47:36 28° NE
Cosmos 2278 Rocket 2.3 19:50:33 10° SSW 19:56:12 77° WNW 20:01:51 10° NNE
GEOS 3 Rocket 3.5 19:53:24 18° NE 19:57:15 75° ESE 20:02:21 10° SSW
Cosmos 2098 Rocket 4.2 19:54:09 10° S 19:59:59 78° W 20:06:59 10° N
YAOGAN 1 2.7 19:57:04 10° S 20:01:23 74° WSW 20:05:40 10° NNW
Cosmos 2298 Rocket 4.4 19:58:54 10° S 20:03:52 42° ESE 20:05:13 35° ENE
Helios 1A Rocket 2.8 20:01:21 10° SSE 20:05:27 89° ENE 20:09:35 10° NNW
CSL-04 Rocket 3.6 20:04:00 10° SSE 20:09:13 60° ENE 20:14:30 10° N
ASTRO E2 2.5 20:06:04 10° SW 20:10:03 81° SE 20:10:34 65° ENE
USA 276 4.4 20:10:46 10° S 20:11:48 16° SSE 20:11:48 16° SSE
Cosmos 158 Rocket 4.2 20:08:30 10° N 20:13:40 47° ENE 20:18:48 10° SSE
Cosmos 1825 Rocket 4.2 20:11:55 10° SSW 20:16:08 55° W 20:19:57 12° N
Meteor 2-8 Rocket 4.3 20:12:39 10° N 20:18:44 74° E 20:24:51 10° S
Cosmos 1125 Rocket 4.0 20:23:30 10° S 20:27:26 42° SE 20:27:26 42° SE
ATLAS 3B CENTAUR R/B 2.2 20:27:05 10° WSW 20:30:06 38° SW 20:30:06 38° SW
Cosmos 489 Rocket 4.4 20:26:13 10° NNW 20:32:31 87° WSW 20:38:48 10° S
Meteor 2-21 4.3 20:28:54 10° S 20:34:52 65° E 20:35:02 65° E
Cosmos 1953 Rocket 4.4 20:33:00 10° SSW 20:37:16 48° W 20:38:33 36° NW
Cosmos 1812 Rocket 4.2 20:36:01 30° NNW 20:37:53 52° W 20:42:05 10° S
PAYLOAD A 3.6 20:26:27 10° W 20:38:17 80° N 20:38:41 74° NE
OAO 3 Rocket 4.1 20:38:51 10° SW 20:42:30 40° S 20:42:30 40° S
ARGOS 4.3 20:42:46 10° S 20:47:47 42° WSW 20:52:48 10° NNW
Meteor 2-14 Rocket 4.3 20:44:29 10° S 20:50:20 84° S 20:50:20 84° S
Skynet4D Del rocket 4.1 20:46:18 10° WSW 20:51:24 51° NW 20:51:24 51° NW
Palapa 6 Rocket 4.5 20:52:01 10° WNW 20:55:11 36° W 20:55:11 36° W
Cosmos 2266 Rocket 4.5 20:58:42 10° SSW 21:04:58 58° W 21:06:04 51° NW
Ariane H10+ 3.7 21:09:42 10° W 21:13:03 26° W 21:13:03 26° W
Milstar 3 4.2 21:12:55 10° W 21:19:04 27° NNW 21:19:04 27° NNW
CZ-3A R/B 4.1 21:14:57 10° SW 21:24:19 58° SSE 21:25:01 57° SE
